Theta_e
326 328 329 330 331 333 333 334 335 336 336 336 334 335 336 335 336 334 337 339 337 336 336 336 334 336 336 335 332 334 334 336 335 341 340 341 341 341 341 341 339 339 340 339 338 339 340 340 339 338 339 338 337 337 337 337 337 337 337 337 335 333 334 336 336 336 333 331 332 332 333 337 338 337 336 336 336 338 338 336 337 337 337 336 337
326 327 330 331 332 333 334 333 334 332 334 335 334 334 335 337 336 335 335 336 337 337 337 337 336 337 334 333 333 333 333 335 337 338 339 339 339 338 337 337 336 335 336 337 336 335 336 336 336 335 335 334 337 337 336 337 335 334 334 333 334 333 332 335 335 333 329 327 325 326 328 332 337 338 337 335 335 334 335 334 335 336 334 335 339
325 327 329 331 332 333 333 333 333 334 334 334 335 335 336 334 335 335 334 335 336 337 337 337 337 335 336 334 335 334 338 339 337 337 337 335 336 335 334 333 332 330 332 333 332 332 333 334 334 334 333 333 333 333 333 332 331 331 331 331 329 330 331 333 333 332 327 328 328 326 321 321 328 331 334 334 335 334 334 334 333 333 331 331 336
324 326 327 330 332 332 333 333 334 334 334 334 334 335 334 334 334 334 334 335 335 335 336 338 336 336 335 335 336 335 335 338 338 337 335 333 330 331 331 330 329 328 328 328 330 329 329 329 330 330 329 331 331 329 328 328 329 329 329 329 328 324 325 326 332 332 329 327 321 321 321 322 317 322 323 327 331 330 330 329 329 329 330 330 329
324 326 327 329 330 330 331 332 333 332 333 333 334 334 333 333 334 335 335 334 335 336 337 336 336 336 336 336 338 337 339 338 335 332 333 331 329 328 328 328 328 327 328 327 327 327 328 328 328 328 327 326 329 327 325 325 326 326 326 327 326 325 322 324 326 329 328 330 324 320 318 318 317 320 322 323 329 326 329 329 329 330 329 328 328
326 326 326 329 329 330 331 332 332 332 332 333 334 333 333 334 335 334 335 335 336 335 336 333 332 332 332 329 328 331 331 332 328 329 327 327 326 328 326 325 326 326 325 324 324 325 326 326 327 326 326 326 327 326 326 325 324 324 324 325 324 325 324 322 321 325 326 327 325 325 325 318 318 321 321 315 324 328 327 328 328 329 328 327 327
326 327 327 328 329 330 331 331 331 331 332 334 333 334 334 335 334 334 334 334 336 336 335 333 330 332 330 330 331 331 327 327 329 329 328 327 327 326 324 325 323 323 323 322 322 323 324 324 324 324 323 324 326 324 322 322 322 323 324 323 322 323 322 318 318 319 320 322 321 323 322 323 324 320 316 319 315 320 323 324 325 326 326 326 328
325 325 326 328 329 329 328 329 330 330 332 333 333 333 333 333 334 334 334 334 335 336 335 334 332 333 332 330 329 329 327 326 327 327 328 327 325 324 323 322 322 321 321 320 320 320 321 321 321 321 321 321 322 320 320 321 323 322 322 321 321 321 319 317 317 316 314 315 318 318 319 321 321 322 322 317 314 312 313 319 321 321 321 322 326
326 325 325 327 328 327 328 328 329 330 331 332 333 333 333 333 332 331 331 332 333 334 335 335 335 334 332 330 328 328 328 327 326 326 325 325 323 322 321 321 323 321 319 319 319 319 320 320 319 319 319 319 319 319 319 320 319 318 318 318 317 317 317 318 315 313 314 313 313 314 316 315 316 318 317 315 312 309 310 311 312 316 317 320 321
327 326 326 327 327 327 328 328 328 329 331 331 330 330 330 329 329 329 329 329 330 330 331 333 334 334 331 330 328 327 328 326 325 324 323 323 320 319 320 321 321 318 319 318 319 317 318 319 318 318 318 318 319 318 319 319 318 317 317 317 316 315 316 315 313 313 313 314 313 313 312 312 312 311 310 310 310 311 307 308 310 310 309 313 317
325 326 327 328 327 327 328 327 327 328 329 329 328 328 328 328 328 327 327 327 328 329 329 329 329 330 330 329 328 327 327 325 323 323 322 321 318 317 318 319 318 318 318 317 317 317 317 318 317 317 317 319 318 316 316 316 316 316 316 316 315 314 314 313 313 312 312 312 312 312 311 311 309 307 307 308 308 306 306 306 308 309 308 308 312
326 326 326 326 326 327 327 325 325 325 326 326 327 327 327 327 326 325 325 326 327 327 327 326 327 327 328 328 327 327 326 324 322 320 319 318 318 316 319 318 316 317 316 315 315 315 316 315 316 316 315 316 315 315 315 315 314 315 314 314 314 314 314 314 312 310 311 311 311 312 312 312 311 308 309 309 307 306 306 305 305 305 306 306 309
325 324 324 325 324 324 324 324 324 324 324 325 325 327 326 325 324 323 322 323 323 324 324 325 325 325 325 325 324 325 324 322 319 319 319 318 317 316 318 315 315 313 314 313 313 314 314 314 314 313 313 314 315 314 314 315 314 313 313 313 313 311 312 312 310 310 311 309 309 311 312 310 308 309 310 308 308 308 306 303 303 304 302 303 306
324 323 324 324 324 323 323 322 322 323 324 325 326 326 324 324 323 321 321 322 322 322 322 323 323 323 324 323 323 321 320 320 318 317 317 316 317 316 315 314 313 313 313 313 313 312 312 313 313 313 313 313 314 314 313 313 313 311 312 312 312 312 311 311 311 311 311 310 310 309 310 308 308 309 308 308 307 305 304 303 302 302 303 302 304
323 322 323 323 323 322 322 322 323 323 323 324 324 323 323 321 321 320 319 321 321 321 321 321 321 322 321 320 319 319 318 316 316 317 316 315 317 316 314 314 313 312 311 312 313 312 313 312 312 312 312 312 312 313 313 312 312 311 311 312 312 312 311 311 310 310 310 309 309 308 309 307 306 307 307 307 307 306 305 304 302 298 298 300 300
322 322 322 322 322 322 322 322 323 323 322 322 322 322 321 321 321 320 319 319 319 319 318 318 317 318 317 317 316 317 316 315 315 315 315 317 316 314 313 314 313 312 312 312 312 312 311 311 311 311 312 312 311 311 311 311 311 310 310 310 310 312 310 309 309 308 309 309 308 306 306 305 306 307 306 306 306 306 305 304 302 300 297 295 297
322 322 321 321 321 322 322 322 322 322 321 321 322 322 321 321 320 318 317 317 317 317 316 316 316 315 315 316 315 315 314 313 313 313 314 316 315 314 313 312 313 313 312 312 311 311 311 311 310 310 311 311 310 310 310 311 311 311 309 309 309 310 310 308 308 307 308 308 307 305 305 305 304 306 305 305 305 304 303 302 302 300 300 296 294
323 322 321 321 321 321 321 322 321 321 321 321 321 322 322 321 318 317 315 315 315 314 313 314 313 313 314 314 314 314 313 313 313 312 314 314 314 314 313 312 311 311 311 311 311 310 310 310 309 309 309 310 310 310 309 309 310 309 309 308 309 309 308 308 308 308 307 307 307 305 304 303 304 304 303 304 303 303 301 301 301 301 300 297 296
321 320 320 320 320 320 320 320 321 321 321 321 321 321 320 319 317 317 315 314 314 313 313 313 313 313 314 314 314 314 314 314 314 314 314 312 311 311 311 311 311 311 311 311 309 308 308 309 309 308 308 308 309 309 309 309 308 308 308 308 308 308 307 307 307 307 307 306 305 303 303 302 303 303 302 302 302 301 300 300 300 300 300 299 297
320 320 320 320 320 320 320 320 319 319 319 320 320 320 319 317 316 315 315 314 313 312 313 312 312 313 313 314 313 312 312 312 313 313 312 311 309 310 310 310 310 310 309 309 308 307 307 306 307 307 307 307 307 308 308 308 308 307 308 307 307 307 306 305 305 306 307 306 303 302 302 301 302 301 300 301 300 300 300 299 299 299 299 299 298
320 320 320 320 319 319 320 320 319 319 319 319 319 318 317 317 315 314 313 312 311 312 311 312 313 313 313 312 313 313 312 312 312 313 311 311 311 310 310 309 309 309 309 308 307 306 305 306 305 305 305 305 306 307 308 308 307 307 307 307 306 305 305 305 305 304 305 305 303 301 300 301 301 300 299 300 299 299 299 299 299 298 298 298 297
320 320 320 319 319 319 319 318 318 318 317 317 318 317 315 315 314 313 313 312 311 311 311 311 312 312 311 312 312 312 311 312 312 311 310 309 309 309 310 309 308 308 308 307 307 307 305 305 304 304 304 304 305 306 307 307 306 306 306 307 306 305 304 304 304 303 303 304 302 300 300 300 301 299 299 298 298 298 297 297 297 298 297 297 298
319 319 319 319 318 317 317 317 317 317 317 317 316 315 314 314 313 313 312 311 312 311 311 311 311 311 311 312 311 311 311 310 310 310 309 308 309 309 309 308 307 308 308 307 306 306 305 304 303 303 303 303 304 305 306 306 306 305 305 305 306 305 304 304 303 302 302 302 301 301 299 300 301 299 298 298 298 298 297 297 296 297 297 297 298
319 319 319 318 317 317 316 315 315 315 316 316 316 314 313 313 313 312 311 311 311 311 311 311 311 311 311 311 311 311 310 309 309 309 309 309 309 309 309 308 307 308 307 307 306 305 304 303 302 301 302 302 303 304 305 306 306 305 304 304 304 304 304 303 303 302 302 301 300 300 299 299 299 298 297 297 297 297 296 296 296 297 297 297 297
318 317 317 317 316 315 314 315 315 315 315 315 314 313 313 313 313 312 311 311 311 311 311 310 310 310 310 310 310 310 310 309 309 309 309 309 308 308 308 307 307 307 307 306 305 304 303 302 302 300 300 300 300 301 302 304 306 306 305 304 304 304 303 303 302 302 302 301 301 299 299 299 298 297 297 296 297 296 296 296 295 296 296 297 297
316 316 315 315 315 315 314 315 314 315 314 314 314 314 312 313 313 312 311 311 311 311 310 310 309 309 309 309 309 310 309 309 308 309 309 309 309 308 307 307 306 305 306 306 305 303 302 301 300 300 299 299 299 299 300 301 302 305 305 305 304 304 303 302 302 302 302 301 300 300 299 299 298 296 296 297 297 295 295 295 295 295 296 296 296
316 315 315 314 314 314 314 314 315 315 314 314 313 315 313 311 312 312 311 311 310 310 310 309 309 309 308 308 308 309 309 309 309 309 309 307 307 308 307 306 307 306 305 305 304 302 302 301 300 299 299 298 298 298 298 298 300 301 303 304 304 304 303 304 303 302 301 302 300 300 299 299 298 297 297 296 295 294 294 294 295 295 296 296 295
315 314 313 312 312 313 313 314 314 315 314 313 314 312 312 311 310 311 311 311 311 310 310 309 308 308 307 308 308 308 308 308 308 308 307 307 307 307 307 307 307 306 305 304 303 302 302 300 300 299 299 299 298 296 296 296 297 299 300 304 303 303 303 302 303 302 301 301 300 300 300 299 299 298 297 296 295 293 294 293 294 295 295 295 295
313 313 313 312 312 312 313 313 314 314 314 312 313 313 311 311 310 310 310 310 310 310 308 308 308 307 307 308 308 308 308 308 307 307 306 306 306 306 306 306 306 306 306 305 304 303 301 300 299 298 297 297 297 296 295 294 295 296 298 300 303 302 303 302 302 302 301 300 300 300 300 300 300 302 299 298 297 297 295 293 293 294 295 294 295
312 313 313 312 313 313 313 313 313 313 313 311 310 311 310 309 309 309 309 310 310 309 308 307 307 306 306 306 306 307 306 306 306 305 306 306 306 306 306 306 305 305 305 305 304 303 301 300 298 297 297 296 295 296 295 293 293 294 296 299 301 304 302 302 302 302 300 301 300 299 301 302 302 302 299 296 295 295 296 296 294 294 294 294 295
313 313 313 313 313 313 312 312 312 312 312 312 310 309 309 309 309 309 309 309 309 308 307 306 305 305 305 305 305 305 305 305 305 305 306 305 305 306 305 305 305 305 305 304 303 301 300 299 298 297 296 296 295 294 293 291 292 292 295 297 299 303 303 302 301 301 299 301 300 299 299 299 300 300 297 295 294 294 294 294 295 296 297 295 295
313 312 313 312 312 312 311 311 312 312 311 311 310 309 309 308 308 308 308 308 308 307 306 305 304 304 304 304 304 304 304 304 304 304 304 304 305 305 304 304 304 304 304 305 303 301 300 300 299 297 296 295 294 293 291 291 292 291 293 295 299 303 303 301 301 301 300 300 299 299 298 299 298 299 295 294 294 294 294 293 294 294 295 294 295
313 312 312 312 312 311 311 311 312 312 311 312 312 310 309 308 308 308 308 307 306 305 304 303 303 303 302 303 303 303 303 303 303 303 304 304 304 304 304 304 304 305 305 304 303 303 301 300 298 296 295 294 294 292 291 291 291 291 291 294 299 304 302 303 301 302 301 300 298 299 298 299 297 300 297 293 293 293 294 294 295 296 297 296 293
313 313 312 312 312 311 312 312 312 313 311 312 312 310 309 310 309 308 307 305 304 303 303 302 302 302 302 303 302 302 302 302 303 303 304 303 303 303 304 304 304 305 304 303 303 303 302 301 299 297 295 294 293 293 291 291 291 291 291 293 301 305 303 303 300 300 301 300 299 297 297 297 296 296 295 293 293 292 292 293 294 295 295 297 295
313 312 312 312 312 312 312 312 312 311 311 312 310 309 309 309 308 307 306 304 303 302 302 302 302 302 302 302 302 302 302 302 302 303 303 303 303 303 303 303 303 303 302 302 302 302 302 302 300 298 296 295 294 291 291 291 291 291 291 295 302 305 303 303 300 300 301 300 299 299 298 296 294 294 295 293 292 292 292 293 293 293 294 295 295
313 312 313 312 312 312 312 312 313 311 310 310 309 309 308 308 308 306 305 304 302 302 301 301 301 301 302 302 302 301 302 301 302 302 302 302 303 303 302 303 302 302 302 302 303 303 303 302 301 299 297 294 294 291 291 291 291 291 292 299 301 300 301 301 300 299 300 301 300 299 297 295 294 293 294 292 292 292 292 292 292 292 293 294 295
315 314 313 314 314 313 313 313 312 310 310 309 309 308 307 307 307 306 304 303 302 301 300 301 301 301 301 302 302 301 301 301 302 302 302 302 302 302 302 303 302 302 301 301 301 301 302 303 302 300 298 295 294 292 291 291 291 291 293 297 299 298 299 299 300 300 300 301 301 298 298 296 295 293 293 290 291 292 292 292 292 292 293 293 293
315 315 314 314 314 314 314 313 311 309 309 309 309 308 307 306 305 305 303 301 301 300 300 301 300 301 301 301 301 301 301 301 301 301 301 302 302 302 302 303 301 300 300 300 300 299 299 300 300 300 300 296 294 293 291 291 291 291 294 296 297 296 296 297 297 299 299 300 298 303 298 296 294 294 292 291 291 293 292 292 292 291 291 292 292
315 314 313 314 313 313 312 312 310 309 309 309 308 308 306 305 305 304 302 301 300 300 300 300 301 301 301 301 301 301 301 301 301 302 302 302 302 303 303 304 303 302 302 301 301 299 298 299 299 300 302 300 296 295 291 291 291 291 294 295 297 295 294 294 296 297 298 298 300 299 298 296 295 294 291 291 291 292 291 292 291 291 291 291 292
315 315 315 314 313 312 311 309 309 309 309 308 308 308 306 305 304 303 301 300 300 300 301 301 301 301 301 301 302 302 302 301 301 302 303 302 302 302 303 302 303 301 300 301 301 301 300 299 299 299 300 300 299 297 295 291 291 292 292 295 296 294 293 293 295 296 296 297 297 297 298 293 292 292 291 291 291 291 291 292 292 291 291 290 293
315 314 310 313 312 312 310 308 309 309 309 309 308 306 305 304 304 302 300 301 301 301 301 301 301 301 301 301 301 301 302 302 302 302 302 302 303 303 304 303 303 302 301 301 301 302 301 301 301 300 299 301 301 299 296 291 292 292 291 292 295 295 293 293 294 294 295 295 295 295 296 295 292 292 291 291 291 291 291 292 292 293 293 293 292
315 312 312 313 312 312 309 309 310 309 308 309 307 305 304 304 302 301 301 301 301 301 301 301 300 300 301 301 301 302 303 303 302 303 302 302 303 304 304 303 301 301 301 301 301 300 300 300 302 303 303 301 299 301 299 292 292 291 291 291 295 295 295 294 294 293 294 295 295 294 295 295 292 292 291 291 291 291 290 293 294 292 291 290 291
314 313 313 312 311 310 309 310 310 309 309 309 306 304 303 303 301 301 302 301 301 301 301 301 300 301 301 301 302 302 302 303 303 303 302 301 302 302 303 302 301 302 302 302 303 303 301 301 301 302 302 301 299 297 294 297 292 291 291 291 291 292 292 296 294 292 294 294 294 294 295 295 292 291 291 291 291 290 291 293 291 290 290 290 291
314 314 313 312 311 310 309 310 309 309 308 306 305 303 302 301 301 302 302 302 301 301 301 301 301 301 301 301 301 302 302 302 302 302 302 302 302 302 301 301 301 301 300 299 300 300 300 299 299 300 300 300 300 298 294 293 295 291 291 291 290 290 290 293 294 294 294 294 293 294 294 291 290 291 291 291 290 290 292 291 290 290 290 292 294
313 313 312 312 311 309 309 309 308 307 306 305 305 303 301 301 301 302 301 301 301 301 301 300 300 300 300 300 301 301 301 301 301 301 300 300 301 302 301 302 302 301 300 300 300 300 300 300 301 300 299 299 299 299 298 294 291 292 291 290 290 290 290 290 293 295 295 294 292 291 290 291 291 291 291 290 291 293 291 290 291 291 295 294 293
314 314 312 312 311 310 309 308 307 309 305 305 304 303 301 301 302 302 301 301 301 301 300 300 300 300 300 300 300 300 300 301 301 301 301 301 301 301 301 301 301 302 302 301 299 298 298 299 301 300 300 298 299 297 297 297 295 294 293 291 291 291 292 292 293 294 291 291 291 291 291 291 292 293 295 294 293 294 291 291 292 293 294 293 293
313 312 311 311 309 307 307 307 307 307 304 304 303 302 302 302 301 301 302 301 300 300 300 300 300 299 300 300 299 299 299 300 301 300 301 301 301 301 302 301 303 302 302 301 299 297 298 297 300 301 300 299 297 296 295 296 296 295 294 293 294 294 293 293 294 294 293 293 292 293 292 291 291 291 291 292 292 293 293 294 293 293 293 293 292
313 311 310 310 309 307 305 304 304 304 303 303 302 301 302 301 301 301 301 301 301 300 299 299 299 299 299 299 299 294 297 299 299 300 300 301 302 303 302 302 301 302 301 299 299 301 300 301 299 299 301 299 296 294 294 294 295 293 293 293 293 293 293 292 292 293 292 292 292 292 293 296 296 296 294 293 293 293 293 292 292 292 292 293 293
312 310 309 309 308 306 305 304 303 303 302 302 301 302 302 302 301 301 301 301 300 299 299 299 298 299 299 299 299 299 299 299 300 301 302 304 302 302 302 297 298 297 296 298 302 300 300 301 301 299 300 300 295 293 293 291 294 290 289 292 292 292 292 292 292 290 290 291 292 293 293 293 293 290 291 292 292 292 291 292 293 292 292 292 292
312 310 310 309 307 306 304 303 302 302 302 301 301 302 302 301 301 301 302 301 300 300 299 298 298 298 299 299 299 299 300 300 300 300 299 297 290 292 297 296 293 289 289 290 292 295 297 298 299 298 296 296 295 295 290 288 289 289 289 288 289 289 289 289 289 288 290 289 290 289 291 290 290 291 289 288 289 290 290 290 290 290 291 291 290
311 308 308 307 306 305 304 302 302 302 301 301 301 301 301 301 301 301 302 301 300 299 298 298 298 298 298 299 298 298 299 300 300 300 300 297 296 295 290 292 293 291 290 289 288 287 286 288 294 299 296 291 291 288 287 289 289 289 288 289 289 289 289 289 288 288 288 288 288 288 289 289 289 290 288 288 288 288 288 288 289 289 290 289 288
Wind_Speed
8 10 8 9 12 9 9 9 11 12 11 10 10 8 9 8 7 7 6 5 5 5 5 4 3 2 2 3 3 2 1 7 3 2 4 3 5 6 6 6 8 8 8 8 7 7 6 5 6 7 6 6 5 5 5 5 5 4 4 3 4 4 3 2 4 5 5 4 5 5 6 7 8 5 6 6 3 3 4 5 6 3 4 4 5
10 11 10 10 11 12 11 10 12 14 11 12 11 10 9 8 8 8 5 5 6 6 5 4 2 1 3 2 2 2 0 6 0 4 4 5 6 8 8 8 9 8 7 7 7 7 6 6 6 6 6 5 5 5 6 5 7 6 6 5 5 4 3 4 6 7 3 6 8 8 6 5 6 2 2 3 4 5 5 6 5 5 3 4 0
12 12 11 10 11 10 8 8 8 11 12 12 12 11 10 9 8 7 5 5 6 6 5 4 3 5 3 2 2 2 1 2 3 3 5 6 7 7 8 8 8 8 7 7 6 6 6 6 5 5 6 5 5 5 6 6 6 7 7 6 6 5 5 6 6 7 5 6 6 4 5 7 4 3 4 6 7 7 6 6 7 3 5 4 6
14 13 13 11 11 10 9 9 9 10 10 10 11 12 10 8 9 8 7 6 7 6 6 6 6 4 3 4 2 3 1 2 3 3 5 6 8 8 7 7 7 7 7 7 6 7 7 6 5 5 6 5 5 5 6 7 6 6 7 7 6 6 6 7 6 7 7 7 5 4 5 3 5 4 10 10 9 7 9 7 6 6 8 6 4
15 15 14 12 11 12 11 10 8 10 10 10 10 10 6 9 9 9 7 7 6 6 6 5 4 5 5 2 1 2 2 1 3 3 4 6 6 6 6 6 6 6 6 7 6 5 5 5 5 5 5 6 5 5 6 7 6 6 7 6 8 7 7 5 6 7 8 7 6 6 3 2 4 7 10 8 5 10 8 9 9 10 8 5 4
16 15 14 12 12 12 12 11 9 10 10 8 9 10 10 8 9 9 9 7 6 6 5 5 4 5 7 2 5 3 3 2 4 4 5 6 5 6 8 9 8 8 8 8 8 7 6 5 5 5 4 5 4 5 5 5 6 5 6 7 8 8 6 6 7 5 8 7 7 5 4 4 7 8 6 7 11 3 6 8 8 9 8 9 5
13 14 13 12 12 11 10 10 9 9 9 9 9 8 9 8 8 8 8 8 6 7 6 5 4 4 7 7 5 2 5 4 4 5 5 4 4 6 6 7 8 7 7 7 7 6 5 6 6 6 6 4 5 7 7 7 5 7 8 8 8 7 8 7 7 8 7 6 8 7 7 6 7 7 6 8 10 8 4 7 8 11 13 13 11
13 14 13 12 12 13 13 13 10 9 9 10 10 8 10 10 9 9 8 7 5 6 6 3 3 5 4 5 5 5 4 4 5 4 4 3 4 5 5 5 6 6 6 7 6 7 6 6 6 6 6 6 7 7 6 5 5 8 7 8 6 7 7 5 6 8 8 7 8 7 7 5 6 5 5 7 7 9 13 10 6 9 11 10 10
12 12 14 12 13 13 12 12 12 12 10 10 9 9 10 10 10 10 9 7 6 6 5 5 3 4 5 5 5 4 4 4 4 4 3 3 4 5 6 4 3 6 7 6 5 6 6 5 6 6 6 6 6 6 5 6 9 8 8 8 7 6 5 7 6 6 6 7 8 7 6 6 5 4 8 9 7 9 9 10 13 12 8 4 8
13 13 12 11 12 13 12 13 12 9 8 9 9 9 10 10 11 10 9 7 7 7 7 5 5 5 5 4 5 4 4 4 4 4 4 4 6 6 4 2 4 6 5 5 5 6 6 6 6 7 6 6 6 6 6 7 8 7 8 7 8 7 6 7 7 6 5 7 7 6 7 8 8 8 8 9 7 5 8 11 11 12 13 12 9
13 12 11 11 13 12 12 12 12 10 8 8 9 9 9 9 10 11 10 8 8 7 7 6 6 5 4 4 4 4 4 5 5 5 5 5 6 5 3 3 4 4 4 4 5 6 6 6 6 7 6 6 6 7 6 7 7 6 6 7 8 7 6 6 6 6 5 6 6 6 7 8 8 9 9 9 9 8 10 9 10 10 12 13 12
14 13 12 13 14 12 12 14 14 13 11 9 8 8 8 9 11 12 10 8 6 6 6 5 4 4 3 2 3 3 3 3 4 5 5 6 5 4 2 3 5 4 4 4 5 6 6 6 6 6 6 6 7 6 6 6 6 6 6 6 6 6 6 6 6 6 7 6 6 5 5 5 6 6 5 6 7 8 8 10 10 11 11 8 10
13 12 12 11 13 14 13 15 14 12 11 10 9 8 9 11 11 11 10 8 7 7 5 5 4 4 2 3 4 4 4 6 6 5 4 4 4 4 2 5 4 4 4 5 5 6 5 6 6 6 6 6 6 6 6 6 6 6 6 6 7 7 6 7 6 7 7 7 6 6 5 7 7 6 6 6 6 5 6 8 8 8 10 12 10
13 12 12 11 12 11 13 14 14 12 12 9 9 9 9 9 10 10 10 8 7 6 5 4 5 4 3 4 4 4 5 5 6 5 5 5 3 3 4 4 4 4 4 4 5 5 6 6 6 6 6 6 6 6 7 7 7 7 6 6 6 6 6 6 6 6 6 7 6 6 6 8 7 7 7 7 7 7 7 8 9 8 8 9 9
13 12 13 12 12 12 11 12 11 11 11 9 7 10 10 9 8 10 10 9 7 6 5 5 4 5 4 5 5 5 5 6 6 5 5 3 2 4 5 4 4 4 4 4 5 5 5 6 6 6 6 6 6 6 6 6 6 6 6 5 5 5 6 6 6 7 7 8 8 8 7 8 7 7 7 7 7 8 8 9 10 12 11 8 9
14 12 11 13 13 12 10 10 10 11 11 9 10 9 9 9 9 9 10 9 7 7 7 6 6 6 7 7 7 6 6 5 5 6 4 2 3 5 5 4 4 4 4 4 5 5 5 6 6 7 6 6 6 7 7 6 6 6 6 5 6 5 6 7 6 7 7 7 8 9 7 8 7 7 8 7 8 8 9 9 9 10 11 13 11
14 14 13 15 14 12 11 10 9 10 10 10 10 9 10 9 9 11 10 9 9 8 7 7 6 6 6 7 6 6 6 7 6 6 4 2 5 5 5 4 4 3 4 4 4 5 5 5 6 6 6 6 7 7 7 6 5 5 5 5 5 5 5 7 6 7 6 6 6 9 7 7 7 6 7 7 7 7 8 8 8 9 10 10 11
16 15 15 16 15 14 12 11 11 11 12 12 11 10 9 9 11 11 11 11 10 9 8 7 7 6 6 7 7 7 8 8 7 7 5 5 5 4 4 4 4 4 4 4 4 5 5 7 5 6 6 6 7 6 7 7 6 5 5 6 5 5 5 5 6 5 6 6 6 7 7 7 7 6 7 6 7 8 8 8 7 7 7 8 9
16 15 12 12 13 13 12 13 15 13 12 13 12 11 10 11 12 11 12 11 11 8 8 7 7 6 6 6 7 7 6 7 6 5 5 6 6 5 5 5 5 4 4 4 5 5 5 5 5 6 6 6 6 6 6 6 6 5 5 5 5 5 6 5 5 5 5 6 6 7 7 7 7 7 8 8 9 9 8 8 8 8 7 8 9
15 13 11 13 14 14 13 13 15 14 13 11 10 8 12 11 12 11 11 11 10 10 8 7 7 7 7 8 8 8 8 8 7 7 6 7 7 6 6 5 5 5 5 5 5 6 5 6 6 6 7 6 6 6 5 5 5 5 5 5 6 6 6 6 5 5 5 6 7 7 8 8 8 8 8 8 7 8 7 7 7 7 7 7 8
15 13 12 14 14 14 14 13 15 13 11 10 10 11 10 10 12 12 12 12 10 9 9 7 6 7 8 8 8 7 8 8 8 7 7 6 6 6 5 5 5 5 5 5 6 6 7 7 7 7 7 6 6 6 5 5 4 5 5 5 6 6 6 5 5 6 6 6 7 8 8 8 8 7 7 7 7 8 8 7 7 7 7 7 8
13 13 13 13 13 14 15 13 12 12 13 13 11 12 13 11 11 11 11 10 10 9 9 8 7 8 8 8 8 7 8 7 7 7 7 7 6 6 5 5 6 5 6 7 7 5 6 7 8 8 7 7 7 7 5 4 5 5 5 4 5 6 6 5 5 7 7 6 6 6 7 6 6 6 6 7 6 7 8 8 8 8 8 8 8
14 14 14 13 13 13 13 14 13 13 13 13 11 11 12 11 11 11 11 10 10 10 10 8 9 8 9 8 8 8 8 8 8 6 7 7 6 6 6 6 6 5 5 6 7 7 8 8 8 8 8 8 8 6 5 5 5 5 6 4 5 5 5 5 6 7 7 5 6 6 7 6 5 6 6 5 6 7 8 9 10 8 9 9 9
15 13 13 13 13 13 13 14 14 13 12 11 10 13 12 10 10 11 12 12 10 10 10 10 9 9 9 9 8 8 8 8 8 6 7 6 6 5 6 6 6 4 6 5 7 8 8 8 8 8 9 8 8 7 6 5 6 6 6 6 5 5 5 6 7 6 6 6 5 5 6 6 6 6 7 7 7 8 9 9 9 8 8 9 9
15 15 15 15 15 15 14 14 14 13 12 10 11 12 11 11 10 10 11 12 11 10 10 10 10 10 10 8 8 8 8 8 7 6 7 6 6 6 5 7 5 6 6 5 7 8 8 8 8 9 9 9 8 8 8 8 5 4 5 5 6 6 6 6 6 6 6 5 5 5 7 6 6 6 6 6 7 9 9 9 9 9 9 8 8
15 15 15 16 15 13 13 13 13 13 13 12 11 12 12 10 11 10 10 10 10 10 10 10 9 9 9 9 9 8 8 8 8 7 7 6 6 6 6 5 7 7 7 7 7 7 8 9 9 9 9 9 9 8 9 9 8 7 5 5 5 5 5 4 4 4 4 5 5 4 6 6 6 6 6 6 7 9 9 9 9 9 9 9 9
16 14 13 13 12 14 14 13 13 13 13 11 10 11 14 11 10 11 10 9 10 10 11 10 10 9 10 9 9 8 8 7 7 6 6 6 6 6 7 7 6 7 6 7 8 8 7 9 9 8 9 9 9 9 8 9 9 9 8 4 4 4 3 3 3 4 5 4 5 5 6 5 5 6 6 6 7 9 8 9 9 8 8 9 10
13 14 14 14 13 13 13 12 12 12 13 11 12 12 11 13 12 11 11 10 8 10 11 11 10 9 9 9 8 8 8 7 7 7 7 7 7 6 6 6 6 7 7 8 8 8 7 8 8 8 8 8 8 9 8 8 8 8 8 6 4 3 3 3 4 4 5 5 5 5 4 5 5 5 5 5 8 9 8 9 8 7 8 9 9
15 16 15 16 15 14 13 13 13 12 12 12 11 13 12 11 11 11 11 11 10 10 11 11 10 10 9 9 8 7 7 8 8 8 7 7 7 6 6 6 6 6 6 7 8 8 8 8 8 8 8 8 7 6 6 6 7 8 7 7 6 3 3 3 3 3 5 5 4 6 4 4 9 8 6 11 11 9 8 9 8 8 9 9 9
17 16 16 16 16 16 15 15 13 13 14 14 11 11 13 12 12 12 12 11 10 10 11 11 10 10 9 10 9 8 8 8 8 8 7 7 7 6 6 6 7 6 6 7 8 8 8 8 8 8 7 6 6 5 8 11 8 5 6 6 7 3 3 3 3 3 4 3 4 4 6 12 11 9 11 13 14 14 13 10 10 10 10 8 7
16 16 15 16 16 16 15 15 13 14 14 15 14 13 12 13 12 12 12 11 11 11 10 10 11 10 10 9 9 9 8 9 8 8 7 7 7 6 7 7 6 6 6 7 7 8 7 7 7 7 7 6 6 6 13 13 13 12 7 6 6 2 3 3 3 3 3 2 3 4 3 7 8 7 8 12 14 15 16 17 18 17 13 8 6
17 18 18 18 18 16 15 15 13 13 14 13 13 13 13 13 12 12 11 11 11 10 11 10 10 10 10 10 9 9 9 9 8 8 8 8 7 7 7 7 6 6 6 6 7 7 7 6 6 7 7 6 6 10 13 14 14 15 11 6 6 2 3 3 3 3 2 3 4 3 4 3 5 5 7 8 12 15 16 18 18 20 17 11 8
21 20 18 18 17 16 15 14 12 13 14 15 14 13 13 12 12 11 10 10 11 10 11 11 10 10 10 9 9 9 9 8 8 8 7 7 8 8 7 7 7 6 5 5 6 6 6 6 7 7 7 6 6 10 12 14 14 15 15 10 5 3 3 2 3 3 3 4 4 4 4 3 5 10 8 9 10 11 15 17 16 16 16 15 13
18 18 18 16 14 13 13 14 14 12 15 11 11 12 12 10 11 11 11 11 11 11 10 11 11 11 10 9 10 9 9 9 8 8 7 8 8 8 7 6 6 5 5 5 5 5 5 6 6 6 6 5 6 8 13 14 14 16 16 12 5 2 2 1 4 4 3 5 3 4 3 3 5 5 7 11 10 10 11 11 10 10 10 13 12
18 17 17 16 16 15 15 13 11 13 12 12 10 10 11 11 11 11 11 11 11 11 10 10 10 10 10 10 10 10 10 9 8 8 8 8 8 7 7 6 5 5 5 5 5 4 5 5 6 6 5 6 6 11 13 15 15 16 18 13 4 3 3 2 4 4 3 5 3 3 3 4 5 5 7 11 10 10 10 9 10 10 10 11 9
17 18 16 16 17 16 15 14 10 14 13 13 12 12 12 11 11 12 11 11 11 11 11 10 10 10 10 10 10 10 9 9 9 8 8 8 6 6 6 5 5 5 5 5 4 4 4 5 5 6 5 6 6 12 13 14 15 17 16 9 5 5 4 5 4 4 4 3 3 3 3 3 3 5 10 14 12 10 10 11 11 10 11 10 9
18 16 14 15 14 15 14 12 10 15 15 14 14 12 11 12 12 11 11 11 11 11 11 10 10 10 10 10 10 10 9 9 9 9 8 7 7 7 5 4 5 5 5 5 4 4 3 3 4 5 6 5 5 8 11 13 14 15 12 8 5 6 5 6 6 3 3 3 2 2 2 2 4 7 12 14 15 14 10 11 11 11 11 10 10
18 15 15 15 14 15 12 12 14 16 14 12 12 12 12 11 12 12 12 12 12 11 11 11 10 10 10 10 10 10 9 9 9 9 8 7 6 5 5 5 5 5 5 5 5 5 4 4 4 4 4 6 4 5 9 10 12 14 12 8 6 6 6 7 7 7 5 3 2 6 4 2 7 9 13 14 17 12 10 11 11 12 12 12 12
19 17 18 15 16 15 14 12 15 15 15 15 15 14 13 12 12 12 12 12 12 12 11 11 11 10 10 10 9 9 9 9 9 8 7 7 6 5 5 4 4 4 5 5 5 5 5 4 4 3 4 6 4 4 7 8 9 10 10 7 5 6 6 7 6 7 7 4 1 4 4 9 9 11 14 15 17 14 10 10 11 11 11 12 13
20 18 16 16 17 16 15 15 16 14 16 16 15 14 14 13 13 12 12 12 12 12 11 10 10 10 9 9 8 9 8 9 9 7 6 6 5 5 4 4 4 4 4 4 4 4 5 5 4 3 3 3 4 3 4 5 6 7 8 7 5 5 7 6 7 7 7 5 5 5 3 10 14 14 16 17 17 18 13 11 10 9 10 14 14
21 19 17 15 17 17 15 17 14 14 13 14 14 13 13 13 12 12 13 12 12 11 12 11 10 10 10 10 8 8 9 8 7 7 6 6 5 4 4 4 3 4 4 4 4 3 3 3 4 4 4 3 3 4 3 3 3 4 6 4 4 4 4 5 6 7 6 6 6 5 5 10 14 16 18 19 19 18 17 10 9 8 10 15 17
19 19 17 18 17 16 17 18 16 16 15 14 14 11 14 13 12 12 12 12 12 12 11 11 11 11 10 10 9 9 8 7 7 6 6 5 4 3 3 3 4 4 4 4 4 4 4 3 3 3 3 5 3 5 3 2 2 5 5 4 2 3 4 5 6 6 6 6 6 6 6 10 16 19 20 20 19 18 19 10 10 14 18 20 15
20 19 18 18 16 16 18 16 14 16 15 13 14 14 13 12 12 12 12 12 12 12 12 12 11 11 10 10 9 9 7 6 6 6 6 6 4 4 4 5 5 4 3 3 2 3 3 3 4 4 3 7 5 4 2 2 1 5 5 5 6 4 7 5 5 6 6 6 6 7 8 14 17 19 19 20 18 18 13 10 16 17 18 22 15
18 21 21 18 17 16 16 15 14 14 14 14 14 14 13 13 14 13 12 12 12 12 12 11 11 11 11 10 10 9 7 7 7 7 6 5 4 4 4 4 5 5 5 4 4 4 3 4 4 4 4 6 6 4 2 5 2 4 6 6 7 6 6 5 5 5 4 6 7 8 10 16 18 19 20 18 16 13 11 17 16 16 17 15 9
21 21 18 17 17 19 17 16 16 17 15 13 13 14 15 14 13 13 13 13 13 12 11 11 12 12 10 11 9 8 8 7 7 6 6 5 5 4 4 4 4 5 5 4 4 3 3 4 2 3 4 4 5 6 4 4 4 7 5 9 10 5 6 8 6 4 4 6 9 14 16 17 18 19 18 13 10 10 14 14 16 15 13 9 9
19 18 19 17 16 16 16 18 18 16 16 13 14 14 15 13 14 13 14 13 13 12 12 13 12 11 11 12 10 10 9 8 7 6 5 5 5 5 4 3 4 3 2 3 4 4 3 3 2 2 3 4 4 4 3 3 4 5 5 9 10 9 9 11 10 4 8 13 15 17 19 17 16 13 7 5 5 8 13 14 15 14 9 9 9
22 18 16 15 18 16 18 16 16 13 15 15 15 14 13 14 14 14 14 14 13 13 12 11 11 11 10 11 10 8 8 7 6 5 5 5 4 4 4 3 2 2 2 2 3 3 3 3 2 2 2 3 5 4 4 3 3 3 4 5 6 6 8 8 7 5 8 9 14 14 14 18 13 12 9 9 8 10 9 9 8 8 9 9 9
18 16 16 13 17 17 16 18 17 15 15 15 16 16 16 16 15 16 14 14 13 13 12 12 13 10 9 10 9 10 9 6 6 6 5 4 4 3 3 1 1 1 1 3 3 1 2 2 4 2 1 3 5 5 3 3 3 2 3 4 4 5 4 5 6 6 8 10 10 12 14 6 5 4 4 4 5 6 7 7 8 8 9 9 11
17 18 18 16 17 18 18 17 16 15 15 15 16 15 18 16 15 15 14 14 13 13 12 13 11 10 9 9 8 8 7 6 6 5 3 1 1 3 4 6 4 4 4 4 2 4 3 3 2 2 1 1 4 4 3 3 0 1 1 3 4 5 5 6 7 8 8 9 8 8 8 6 4 4 5 5 6 7 6 7 8 8 9 9 9
15 17 17 16 17 17 18 17 15 15 15 16 16 15 16 17 16 15 14 13 13 12 12 11 10 10 10 9 8 7 7 6 6 6 7 5 7 11 8 6 4 5 10 9 8 4 3 3 4 5 4 4 3 3 6 6 4 4 5 7 8 10 10 8 9 12 7 6 8 7 8 5 5 4 5 5 6 6 6 6 6 8 9 9 9
14 16 15 16 16 16 16 17 16 15 16 16 15 16 16 15 15 15 14 14 13 11 10 10 10 9 10 9 8 6 6 6 6 5 7 7 6 7 10 13 10 6 9 10 9 8 7 6 4 2 4 7 8 8 7 5 4 5 6 8 10 11 12 12 8 7 8 6 7 7 5 4 4 5 4 5 5 5 6 6 6 6 8 8 7
Wind_Direction
143 135 138 133 126 126 123 122 123 121 120 116 114 116 119 116 127 112 110 108 105 85 62 61 34 31 44 54 51 71 61 279 287 20 51 41 49 41 39 52 46 34 36 38 28 25 28 35 33 26 21 20 22 23 20 24 16 7 352 341 345 336 344 349 350 314 297 301 312 303 301 271 256 241 243 251 279 310 289 269 258 267 238 230 204
135 132 132 127 130 135 129 127 131 127 130 127 126 127 122 121 110 105 95 106 101 95 101 111 155 90 112 75 93 68 199 236 39 50 45 34 34 42 30 29 43 37 35 38 31 22 21 24 33 31 23 12 16 32 31 33 22 19 13 7 2 353 352 8 359 343 338 350 328 325 308 317 265 201 293 311 299 270 260 263 261 243 271 269 135
135 134 135 133 134 135 131 134 133 128 131 128 128 128 126 116 116 112 120 113 104 103 97 107 95 87 96 102 110 44 276 18 65 56 47 41 28 37 39 32 33 37 32 40 37 28 18 18 24 27 27 11 11 26 30 29 31 24 14 10 6 2 0 21 13 18 344 337 296 292 337 333 340 63 13 325 303 271 259 266 269 244 253 274 171
137 136 134 136 132 127 128 126 127 122 121 125 133 131 129 128 127 120 120 105 99 94 97 89 91 97 73 62 308 197 186 93 80 64 58 50 40 33 36 31 35 37 35 36 41 31 23 18 14 27 23 11 11 25 25 22 25 30 16 20 22 5 3 359 7 15 12 356 356 349 294 285 306 23 341 318 300 342 337 326 328 335 341 334 342
140 138 137 140 140 136 134 138 129 129 131 132 133 132 129 130 127 122 117 109 105 107 99 103 100 83 57 43 225 175 193 108 62 51 52 60 52 36 37 33 31 32 35 37 38 36 31 24 13 23 30 7 5 28 27 15 19 27 18 20 26 22 1 343 3 7 12 44 9 350 340 332 2 328 331 295 3 337 327 336 343 340 333 328 333
143 141 143 146 142 139 137 136 134 129 128 133 130 128 131 127 121 116 112 110 106 88 77 91 108 112 98 145 241 195 98 43 51 36 47 40 51 46 31 19 23 25 23 28 27 20 20 20 11 14 24 18 1 30 25 18 22 14 24 26 22 24 3 351 358 7 359 26 23 13 2 328 321 330 331 325 322 304 333 339 326 329 337 336 330
141 138 143 144 143 137 127 128 129 125 116 120 122 120 120 117 119 117 118 117 118 112 115 125 118 122 147 185 220 128 97 73 61 41 43 58 52 55 46 25 20 24 27 24 22 21 18 19 18 18 12 5 11 38 28 21 10 20 33 32 27 21 24 14 350 4 357 8 5 359 353 329 339 341 339 321 324 331 346 340 343 351 353 340 335
143 144 144 143 142 139 132 131 128 122 116 119 121 120 118 117 108 96 91 94 97 115 128 142 142 146 125 88 74 77 81 87 77 66 62 63 69 66 54 39 20 27 26 26 26 21 19 26 28 24 19 12 32 38 26 16 15 40 31 40 28 30 24 6 2 20 0 352 353 352 344 343 345 343 338 359 331 326 324 332 336 342 339 331 340
147 143 147 153 140 133 134 131 127 125 124 122 122 118 117 114 106 100 96 99 115 132 135 136 123 95 96 99 100 99 118 122 114 112 101 87 82 62 54 42 52 43 28 21 24 30 24 26 35 36 30 24 36 35 26 30 39 34 36 41 29 34 6 32 30 16 0 4 346 0 350 349 340 350 14 7 358 334 321 333 330 333 325 328 345
145 142 145 146 130 134 134 129 128 118 114 108 102 108 111 111 110 108 100 90 81 65 58 70 84 77 88 103 111 126 144 131 131 138 126 106 75 63 46 25 47 55 42 21 17 38 30 26 37 43 32 32 36 33 27 36 45 38 40 43 37 30 26 40 33 23 6 9 6 351 354 355 7 9 12 1 349 351 336 328 334 331 333 336 342
144 140 147 128 126 133 136 131 125 120 110 108 105 108 112 110 100 93 84 71 65 60 58 53 48 55 93 116 137 142 138 142 141 141 128 101 89 85 80 39 55 57 48 27 23 36 33 32 34 45 39 31 37 38 27 37 47 41 41 46 48 40 35 41 39 34 18 17 7 4 10 19 21 8 1 357 353 345 339 332 330 340 338 325 336
140 144 141 127 134 136 131 132 132 130 127 121 116 113 115 104 100 96 91 94 94 89 84 69 65 69 62 81 101 124 144 108 97 90 84 91 100 104 101 87 63 53 50 41 32 33 35 32 33 40 40 33 38 42 33 34 53 42 41 44 46 41 39 43 38 33 25 17 9 360 10 31 24 15 2 358 360 348 341 332 333 336 324 320 321
139 140 136 137 140 138 136 135 134 133 130 126 124 119 105 103 103 105 101 90 86 91 91 97 98 91 77 58 67 37 65 93 87 77 65 81 81 76 86 76 68 57 39 40 44 41 35 37 36 35 38 35 36 44 36 34 49 49 41 39 45 38 31 42 38 33 26 26 5 350 4 33 21 4 356 10 356 347 344 333 332 329 322 320 327
140 145 142 144 140 139 136 137 137 134 131 133 133 113 103 106 108 111 110 108 106 100 100 108 103 97 87 90 79 68 58 65 77 80 70 70 92 117 90 81 78 62 53 46 42 46 46 44 42 43 42 41 36 41 43 36 43 45 38 40 37 49 33 37 41 31 33 29 14 359 26 37 13 7 10 3 354 354 345 347 332 325 321 320 321
145 148 151 145 142 140 143 140 139 134 129 124 108 102 109 111 115 117 120 113 109 112 114 105 88 87 91 77 73 78 67 63 60 67 82 89 61 79 78 72 67 65 55 45 44 50 54 51 48 44 41 41 41 39 45 43 43 45 36 29 39 42 41 35 31 32 29 26 26 12 28 36 11 14 12 0 357 356 348 349 341 333 331 330 327
150 149 144 144 143 144 144 142 140 131 125 122 120 122 126 127 128 120 110 106 105 101 89 80 68 60 66 74 72 78 85 80 80 74 71 109 108 85 80 78 77 73 67 62 49 48 50 56 52 47 41 39 41 43 43 43 40 48 38 26 38 30 45 36 35 27 27 25 34 25 24 32 11 8 17 359 3 0 360 352 348 338 338 329 331
150 151 155 152 149 148 147 142 139 133 132 135 136 131 123 126 119 111 117 116 116 111 101 91 81 75 76 86 97 99 97 96 99 116 149 133 85 86 86 84 81 79 84 69 64 56 56 57 55 50 42 39 39 41 41 41 38 41 43 32 33 34 43 41 34 32 24 17 45 36 25 27 7 11 20 6 3 9 4 356 349 347 341 331 330
153 149 154 154 152 151 146 145 143 142 140 139 132 130 132 120 120 125 122 120 120 115 112 114 113 109 115 120 123 122 125 131 138 140 140 117 107 96 87 87 81 77 74 73 68 62 54 55 56 54 50 42 40 38 43 40 35 29 36 32 30 32 36 50 37 38 23 20 42 44 25 30 4 15 15 1 10 12 3 352 345 343 342 336 331
148 148 154 151 152 154 151 152 150 140 139 138 137 137 129 122 126 124 121 123 121 120 122 124 130 139 138 126 116 117 120 124 128 122 104 100 98 93 88 81 74 65 67 71 71 67 60 55 58 58 50 49 41 36 40 46 39 31 27 32 23 41 35 39 45 36 34 24 37 42 32 27 9 20 7 7 17 13 356 348 342 347 344 338 331
147 147 155 153 157 154 154 149 143 143 142 137 131 134 125 120 127 126 123 121 122 126 133 134 138 138 131 129 121 119 117 114 112 112 113 106 99 97 92 84 79 74 67 65 62 60 65 61 46 55 58 51 48 38 34 41 49 41 26 29 26 37 44 33 38 44 36 36 34 39 36 27 16 24 11 9 9 358 353 342 345 342 336 332 327
150 151 155 157 157 152 149 142 143 143 139 133 134 125 124 133 126 126 125 125 126 127 127 133 134 119 116 110 114 122 121 115 103 94 91 87 86 86 83 82 83 75 73 69 68 65 53 53 56 48 48 47 46 42 34 31 40 47 37 36 34 34 40 39 31 39 37 39 38 40 37 28 24 22 11 2 3 358 347 339 340 338 331 331 328
148 154 153 155 151 150 148 143 141 141 142 143 139 132 128 131 129 128 126 127 129 129 128 130 114 109 113 122 118 113 108 109 109 106 101 96 91 84 82 77 73 72 71 65 62 59 66 60 52 48 46 43 41 38 34 30 34 41 46 38 38 39 35 36 44 36 42 27 38 47 37 41 25 17 18 3 358 351 346 341 341 337 331 329 329
155 157 155 152 151 150 146 146 147 146 146 142 140 131 133 133 135 133 131 132 132 130 131 129 124 127 124 118 113 110 112 109 105 104 102 104 103 100 95 87 76 68 69 75 67 59 55 57 57 51 44 40 37 32 26 34 34 40 38 38 43 42 34 36 42 45 39 32 30 43 43 24 25 19 13 354 356 354 347 343 336 333 329 328 334
158 156 151 153 150 146 149 150 150 149 146 145 140 132 134 141 143 140 134 132 135 137 135 132 127 126 122 117 113 113 109 107 105 98 95 88 85 83 87 90 92 88 78 69 71 69 61 53 55 53 46 41 35 24 23 25 39 39 37 30 38 37 38 38 42 39 37 34 26 37 42 28 26 16 1 356 355 353 345 340 332 330 331 335 337
152 152 153 152 151 153 155 153 153 152 149 146 146 140 142 144 141 135 138 143 137 138 135 133 131 128 122 117 115 111 106 103 100 100 99 97 95 93 91 85 79 73 66 70 72 72 67 60 53 50 50 44 35 28 19 9 14 48 37 38 29 42 35 38 41 32 34 24 20 39 48 27 20 15 354 353 354 348 343 337 333 335 336 339 334
149 152 153 156 157 155 155 155 155 155 151 152 155 145 133 144 138 137 143 139 133 137 136 133 129 126 123 120 116 114 113 111 107 104 102 102 99 95 91 90 89 88 83 74 67 57 61 62 56 53 49 47 41 31 21 10 359 8 50 41 37 49 52 35 43 50 36 34 5 26 53 34 15 10 354 352 358 345 341 338 336 340 338 334 327
149 149 151 153 155 160 158 160 157 154 149 153 158 157 138 140 140 143 142 136 134 136 136 133 133 129 127 126 123 120 117 113 108 107 109 103 99 98 96 94 97 99 97 89 78 71 63 62 59 53 49 45 45 36 24 9 2 359 352 37 37 40 47 50 34 54 36 38 18 12 47 28 19 1 9 11 354 349 341 338 337 332 328 327 327
144 152 155 156 158 162 160 162 157 158 151 155 161 144 143 147 149 147 143 137 141 141 139 137 136 132 128 122 120 121 119 115 110 104 96 93 90 85 82 81 83 80 82 87 87 84 76 66 61 58 51 50 44 36 23 10 2 354 347 344 57 23 38 28 39 45 47 33 26 7 43 27 29 15 40 12 3 347 340 334 329 319 320 319 323
152 159 159 159 164 165 160 159 158 163 148 148 164 143 136 148 146 145 145 146 145 142 139 138 133 130 128 124 120 115 114 114 113 108 103 103 103 104 100 90 77 71 71 81 88 86 82 77 68 58 54 47 42 33 26 4 352 351 349 340 341 32 29 36 31 45 57 40 20 9 18 52 18 33 54 23 0 346 340 333 321 318 312 315 316
162 165 161 164 167 166 162 158 163 166 155 151 149 147 147 151 148 146 148 146 146 140 139 137 135 129 127 129 127 127 120 115 115 114 111 107 102 94 92 90 87 83 78 78 83 81 77 77 73 67 61 51 36 30 6 17 22 2 334 341 324 349 38 20 21 42 66 58 33 31 359 7 21 16 31 15 354 344 340 328 318 315 311 306 308
164 166 163 167 168 168 161 163 171 163 164 157 147 152 153 149 147 150 148 147 144 143 138 138 135 136 133 132 130 125 127 121 114 118 123 115 103 96 91 92 90 89 89 89 85 82 79 77 75 68 63 53 35 16 5 11 4 9 2 335 319 327 32 21 10 25 55 43 42 39 9 4 5 14 21 11 352 345 339 335 325 314 305 291 302
167 171 172 173 171 168 162 169 169 158 157 153 153 153 151 153 152 149 147 147 144 142 140 139 137 135 136 132 130 128 124 125 126 120 116 118 118 113 108 104 103 99 96 95 90 90 88 83 77 70 59 51 38 11 11 7 6 359 4 340 312 323 33 36 337 8 21 55 41 20 14 13 359 6 34 4 351 342 339 333 325 315 307 295 301
176 173 175 173 172 167 165 167 170 168 162 165 158 158 149 155 151 145 146 143 142 144 142 139 140 137 133 134 131 131 129 125 120 117 116 114 108 106 101 99 97 96 91 88 96 103 103 95 82 69 62 49 34 14 10 12 5 0 354 347 313 331 24 33 350 1 6 55 46 10 10 360 3 358 25 1 349 341 336 330 320 321 325 331 333
173 175 176 171 165 166 167 172 179 157 146 157 157 149 141 151 144 146 144 144 146 144 141 141 140 136 136 135 133 131 125 121 121 120 116 111 109 107 108 102 100 93 92 97 96 94 96 89 82 79 67 51 37 7 15 11 8 359 352 339 287 310 17 345 27 350 344 80 43 22 360 354 8 5 22 357 344 339 333 326 329 331 326 323 329
171 171 176 168 164 165 169 171 181 142 151 150 139 125 139 148 150 146 146 146 147 144 145 142 136 138 138 136 134 128 126 128 126 119 113 110 113 120 120 121 118 115 112 104 93 84 83 87 88 86 77 54 32 17 18 13 6 2 351 341 302 355 359 9 54 350 345 85 39 27 1 22 10 12 2 345 340 334 327 325 328 331 324 314 315
174 171 173 167 168 167 168 171 173 134 141 149 144 150 149 148 150 148 148 148 147 147 142 139 140 141 139 137 134 132 128 125 121 120 121 121 120 110 104 101 96 93 91 95 95 93 93 99 102 95 85 62 35 20 18 14 9 5 353 340 346 352 7 340 48 9 344 76 41 34 41 41 13 13 348 340 334 334 328 328 328 326 321 312 313
167 169 164 161 166 163 171 167 140 140 145 156 148 144 149 150 152 151 153 151 149 145 143 141 141 140 139 138 134 131 129 126 127 126 122 119 117 115 115 114 110 105 98 89 90 80 75 78 89 102 95 75 49 21 21 14 9 7 359 338 344 9 351 358 347 12 334 74 67 66 55 62 11 7 344 338 332 339 329 328 325 322 318 311 315
158 159 159 165 165 168 168 156 143 145 144 139 139 146 153 155 153 156 153 153 149 145 145 144 142 142 136 135 135 132 132 130 128 126 125 128 124 117 118 122 119 125 120 111 102 96 86 74 63 62 84 100 72 40 34 18 8 3 359 343 346 13 357 358 346 333 341 96 78 76 92 44 17 355 338 334 331 334 330 324 322 321 316 313 314
159 164 167 164 158 162 161 157 146 148 140 138 149 156 157 159 157 157 154 152 149 145 148 145 141 140 138 136 134 133 132 132 128 125 129 130 130 129 124 122 124 129 137 139 126 119 115 103 92 81 57 104 106 71 44 29 12 360 357 343 356 12 2 352 338 330 317 20 134 136 76 35 14 340 334 332 327 329 324 320 319 315 310 312 315
164 167 166 161 153 160 165 151 151 143 140 146 155 169 162 160 162 158 155 152 149 149 144 139 140 138 135 130 130 132 127 124 125 128 130 120 117 126 131 135 151 150 134 121 129 127 129 129 131 113 100 91 107 91 62 44 19 352 353 344 352 17 1 345 336 329 332 349 353 351 358 15 350 333 330 328 325 322 321 314 313 309 307 313 316
168 168 166 160 157 165 155 150 148 142 145 157 164 166 161 164 160 158 155 149 148 145 142 143 138 134 132 130 126 123 121 122 127 127 123 126 133 138 155 165 145 114 109 109 120 133 125 139 147 151 138 113 98 122 103 56 12 341 333 356 343 10 356 342 330 334 337 331 342 351 342 336 330 329 325 323 318 315 311 310 302 298 300 302 308
168 159 165 164 161 165 151 154 154 155 156 177 154 165 164 162 160 157 151 147 147 142 141 139 139 137 128 124 123 121 122 125 125 126 132 121 123 139 132 112 93 100 120 150 170 162 157 145 151 155 157 128 94 79 146 151 347 329 312 303 321 332 331 324 325 335 322 324 341 340 337 323 325 322 319 316 313 309 307 306 293 290 300 305 312
160 165 162 161 166 156 156 159 161 154 168 168 158 164 161 160 159 151 147 149 143 143 143 141 136 129 126 125 125 127 125 129 130 131 125 127 139 142 128 110 122 141 155 160 152 152 165 164 168 166 150 136 129 104 93 131 189 321 328 300 273 268 304 299 316 321 314 329 347 328 321 318 317 314 312 310 306 306 306 308 309 313 314 316 312
153 159 157 160 170 153 158 158 158 165 161 159 167 161 161 160 155 148 149 143 142 144 142 135 128 127 127 129 131 129 128 129 134 128 129 138 143 128 130 138 161 160 160 169 159 188 172 169 169 147 132 132 149 133 156 106 89 354 353 340 327 289 280 284 309 293 325 345 327 319 313 310 309 306 305 303 300 300 325 329 329 321 325 324 331
154 160 160 169 172 152 158 161 162 162 151 167 161 163 158 159 148 150 145 146 146 144 139 131 133 134 134 139 135 134 135 135 134 137 137 144 139 163 164 172 194 188 173 174 168 164 157 137 152 135 132 121 128 147 152 130 102 15 8 2 350 351 315 316 316 314 357 329 318 312 310 309 307 303 295 290 297 330 331 327 326 326 330 335 336
152 161 162 176 159 162 162 163 174 167 135 162 163 161 162 149 148 148 148 149 149 142 134 138 140 141 143 144 139 139 140 137 140 142 143 149 164 188 166 186 207 168 177 162 172 153 153 128 139 142 133 124 119 101 83 64 47 12 3 354 349 356 352 340 329 326 345 335 329 321 311 305 304 297 306 334 334 336 330 329 331 337 343 339 344
163 157 160 165 150 167 177 170 164 145 149 162 161 161 157 146 151 151 152 152 145 137 140 140 142 147 147 144 141 142 140 145 148 147 155 168 181 191 175 191 169 169 174 160 133 153 152 140 132 120 144 140 118 91 74 57 39 13 360 346 349 342 341 339 337 337 343 336 322 314 307 295 275 288 326 347 344 340 333 338 338 344 341 341 343
147 143 160 167 170 165 148 149 152 159 158 160 159 161 155 154 153 156 155 150 141 145 146 147 149 149 146 144 141 138 143 153 161 163 165 171 196 161 171 157 68 77 181 162 152 108 83 125 145 151 146 143 112 99 75 52 39 6 345 336 332 328 331 330 325 336 333 319 312 307 300 299 340 338 348 344 350 342 335 337 341 344 342 339 343
158 156 172 174 168 166 163 156 155 157 158 159 159 157 155 155 158 158 157 147 145 148 146 148 149 146 142 143 140 145 154 159 167 170 141 77 148 218 142 90 61 74 71 26 37 102 65 27 17 77 57 53 86 93 91 130 114 138 259 314 316 311 315 309 309 333 326 310 307 310 305 315 338 345 352 345 344 342 337 339 340 347 342 340 343
162 157 177 161 166 163 162 159 155 158 157 157 157 154 156 159 161 158 151 146 147 148 146 149 150 147 145 145 147 159 163 165 165 161 108 78 45 57 82 105 105 81 78 73 76 85 63 30 17 56 56 47 60 106 150 152 190 217 244 248 259 275 277 279 298 311 301 298 300 310 291 315 330 348 347 345 342 336 339 340 337 347 341 341 341
158 163 173 160 167 163 162 158 157 156 158 157 156 154 157 161 161 156 149 148 150 146 148 151 151 151 153 148 150 173 163 158 167 173 135 115 94 49 63 101 112 117 112 106 105 112 88 75 81 77 86 111 124 143 152 187 213 246 268 279 283 286 295 297 316 344 328 310 305 293 293 328 330 344 346 347 342 335 338 339 342 346 340 338 340